Weather History for Baltimore, MD

Change the Weather History Date:

Monday, June 4, 2012

  Actual Average Record
Temperature  
Mean Temperature 66 °F 69 °F  
Max Temperature 74 °F 80 °F 96 °F (1930)
Min Temperature 57 °F 58 °F 46 °F (1964)
Degree Days  
Heating Degree Days 0 1  
Month to date heating degree days 0 6  
Since 1 June heating degree days 0 6  
Since 1 July heating degree days 3586 4755  
Cooling Degree Days 1 5  
Month to date cooling degree days 9 20  
Year to date cooling degree days 201 104  
Since 1 June cooling degree days 9 20  
Growing Degree Days 15 (Base 50)    
Moisture  
Dew Point 52 °F    
Average Humidity 66    
Maximum Humidity 93    
Minimum Humidity 38    
Precipitation  
Precipitation 0.06 in 0.12 in 1.26 in (1891)
Month to date precipitation 1.61 0.49  
Year to date precipitation 12.31 17.52  
Snow  
Snow 0.00 in 0.00 in - ()
Month to date snowfall 0.0 0.0  
Since 1 July snowfall 1.8 20.1  
Snow Depth 0.00 in    
Sea Level Pressure  
Sea Level Pressure 29.68 in    
Wind  
Wind Speed 9 mph (NW)    
Max Wind Speed 21 mph    
Max Gust Speed 29 mph    
Visibility 10 miles    
Events      
T = Trace of Precipitation, MM = Missing Value Source: NWS Daily Summary

Daily Weather History Graph

Daily Weather History Graph

Search for Another Location

Airport:

Trip Planner

Search our weather history database for the weather conditions in past years. The results will help you decide how hot, cold, wet, or windy it might be!

Date:

Astronomy

Jun. 04, 2012 Rise Set
Actual Time 5:41 AM EDT 8:29 PM EDT
Civil Twilight 5:09 AM EDT 9:01 PM EDT
Nautical Twilight 4:29 AM EDT 9:41 PM EDT
Astronomical Twilight 3:44 AM EDT 10:26 PM EDT
Moon 8:56 PM EDT (6/4) 5:45 AM EDT (6/4)
Length of Visible Light 15h 51m
Length of Day
14h 48m
Full, 100% of the Moon is Illuminated
Jun 4
Full
Jun 11
Last Quarter
Jun 19
New
Jun 26
First Quarter
Jul 3
Full

Hourly Weather History & Observations

Time (EDT) Temp. Dew Point Humidity Pressure Visibility Wind Dir Wind Speed Gust Speed Precip Events Conditions
12:54 AM 64.9 °F 52.0 °F 63% 29.70 in 10.0 mi SW 5.8 mph - 0.00 in   Overcast
1:54 AM 63.0 °F 54.0 °F 72% 29.68 in 10.0 mi North 8.1 mph - N/A   Mostly Cloudy
2:54 AM 62.1 °F 57.0 °F 84% 29.67 in 10.0 mi ESE 4.6 mph - 0.01 in   Mostly Cloudy
3:54 AM 60.1 °F 57.0 °F 90% 29.67 in 10.0 mi WSW 3.5 mph - N/A   Mostly Cloudy
4:54 AM 59.0 °F 57.0 °F 93% 29.66 in 10.0 mi Calm Calm - N/A   Mostly Cloudy
5:54 AM 59.0 °F 55.4 °F 88% 29.65 in 10.0 mi WSW 3.5 mph - N/A   Scattered Clouds
6:54 AM 60.1 °F 55.0 °F 83% 29.65 in 10.0 mi West 8.1 mph - N/A   Mostly Cloudy
7:54 AM 64.0 °F 55.0 °F 73% 29.65 in 10.0 mi West 6.9 mph - N/A   Mostly Cloudy
8:54 AM 69.1 °F 54.0 °F 58% 29.65 in 10.0 mi WNW 10.4 mph 19.6 mph N/A   Mostly Cloudy
9:54 AM 70.0 °F 50.0 °F 49% 29.65 in 10.0 mi NW 12.7 mph 24.2 mph N/A   Scattered Clouds
10:54 AM 71.1 °F 48.0 °F 44% 29.65 in 10.0 mi NNW 13.8 mph 21.9 mph N/A   Scattered Clouds
11:54 AM 71.1 °F 48.0 °F 44% 29.66 in 10.0 mi NNW 11.5 mph 20.7 mph N/A   Scattered Clouds
12:54 PM 72.0 °F 46.9 °F 41% 29.66 in 10.0 mi NW 16.1 mph 21.9 mph N/A   Mostly Cloudy
1:54 PM 71.1 °F 46.9 °F 42% 29.67 in 10.0 mi NW 12.7 mph 18.4 mph N/A   Mostly Cloudy
2:54 PM 71.1 °F 46.9 °F 42% 29.67 in 10.0 mi NW 11.5 mph - N/A   Mostly Cloudy
3:54 PM 73.0 °F 46.9 °F 39% 29.67 in 10.0 mi NW 12.7 mph 20.7 mph N/A   Mostly Cloudy
4:54 PM 71.1 °F 46.0 °F 41% 29.67 in 10.0 mi NW 11.5 mph - N/A   Mostly Cloudy
5:54 PM 71.6 °F 48.2 °F 43% 29.67 in 10.0 mi NW 15.0 mph 20.7 mph N/A   Mostly Cloudy
6:54 PM 71.1 °F 46.9 °F 42% 29.68 in 10.0 mi NNW 8.1 mph - N/A   Scattered Clouds
7:54 PM 69.1 °F 48.9 °F 49% 29.69 in 10.0 mi WNW 3.5 mph - N/A   Scattered Clouds
8:54 PM 66.9 °F 50.0 °F 54% 29.71 in 10.0 mi NW 3.5 mph - N/A   Mostly Cloudy
9:54 PM 64.9 °F 51.1 °F 61% 29.73 in 10.0 mi NE 16.1 mph 26.5 mph N/A   Overcast
10:54 PM 60.1 °F 55.9 °F 86% 29.76 in 10.0 mi North 3.5 mph - 0.05 in   Overcast
11:29 PM 60.8 °F 55.4 °F 82% 29.77 in 10.0 mi NE 10.4 mph - N/A   Overcast
11:54 PM 60.1 °F 55.9 °F 86% 29.77 in 10.0 mi ENE 11.5 mph - N/A   Overcast